FENGYUN 1C DEB

Satellite information

Favourite Embed

Satellite Type and Status

DEBRISIN ORBIT

Key statistics

Satellite FENGYUN 1C DEB at a glance.

Uptime

9715

Days in orbit

Revolutions

≈ 14.6

Per day

Orbit

SSO

Sun Synchronous Orbit

Inclination

98.1

Latest

Satellite identification and parameters

Extended collection of information and parameters for FENGYUN 1C DEB.

Object identification

Identified? True

Debris? True

Object name: FENGYUN 1C DEB

International designator: 1999-025DH

Object number (NORAD): 29815

Object ID (CCSDS): 29815

Country: PEOPLES REPUBLIC OF CHINA (PRC)

Current information (Y/N): Y

RCS size: SMALL

Orbital parameters

Period: 98.38 minutes

Inclination: 98.0565 deg

SMA: 7059.37 km

Apoapsis: 811.091 km

Periapsis: 551.379 km

RAAN: 354.5173 deg

Eccentricy: 0.0183948

Argument of periapsis: 137.5735 deg

Mean anomaly: 223.9858 deg

Mean motion: 14.63706017 rev/day

Mean motion (dot): 0.00005251 rev/day2

B* drag term: 0.00079594 1/REarth

Two-line elements (TLE)

Creation date: Dec. 12, 2025, 7:26 a.m.

Reference frame: TEME

Reference center: EARTH

Epoch: Dec. 11, 2025, 11:37 p.m. UTC

TLE line 0: 0 FENGYUN 1C DEB

TLE line 1: 1 29815U 99025DH 25345.98451245 .00005251 00000-0 79594-3 0 9997

TLE line 2: 2 29815 98.0565 354.5173 0183948 137.5735 223.9858 14.63706017998448

Live tracking on map

Real-time ground track for satellite FENGYUN 1C DEB.

In-orbit conjunctions

A list of the most updated potential collisions computed for object FENGYUN 1C DEB.

Target Orbit TCA Probability of collision Miss distance Type
SL-18 R/B SSO 2025-10-26 22:53:53 0.0002013882 157.0 (m) ROCKET BODY
NOAA 16 DEB SSO 2025-05-25 09:09:25 0.0002472573 191.0 (m) DEBRIS

Associated space launch

Chinese polar orbiting meteorological satellite

FENGYUN 1C DEB was lifted into orbit during the mission ‘Long March 4B | Feng Yun 1C’, on board a Long March 4B space rocket.

The launch took place on May 10, 1999, 1:33 a.m. from Launch Complex 7.

For more information about the launch, click the button.

Launch to space Long March 4B | Feng Yun 1C
Long March 4B | Feng Yun 1C

Agency: N/A

Status: Launch Successful

Launch date: May 10, 1999, 1:33 a.m. UTC

Rocket: Long March 4B

Launch pad: Launch Complex 7

Location: Taiyuan Satellite Launch Center, People's Republic of China

...

Latest news about this satellite

There are no fresh news available about this satellite. Check back as we update our databases every day.


Newsletter sign-up

Weekly statistics, charts and insights to help you stay on top of the space industry.